Location: *
(46.1833°N, 22.7667°E)
Time: 13:50:12
(UTC+00:00)

CZ-2D R/B - Pass Details

Date: 17 September 2019
Orbit: 523 x 538 km, 97.4° (Epoch: 21 October)

Event Time Altitude Azimuth Distance (km) Brightness Sun altitude
Rises 17:23:24 0° 171° (S) 2,643 6.6 -8.7°
Reaches altitude 10° 17:25:30 10° 173° (S) 1,758 5.7 -9.1°
Maximum altitude 17:29:16 71° 257° (WSW) 558 3.5 -9.7°
Drops below altitude 10° 17:33:06 10° 343° (NNW) 1,773 6.3 -10.4°
Sets 17:35:13 0° 346° (NNW) 2,667 7.2 -10.7°
